Park Rapids, MN

11:28 PM CDT on September 26, 2016 (GMT -0500)
Park Rapids Municipal

Weather History for KPKD - January, 2014

Change the Weather History Date:

Monday, January 6, 2014

  Actual Average Record
Temperature  
Mean Temperature -22 °F -  
Max Temperature -18 °F 13 °F 39 °F (2008)
Min Temperature -27 °F -6 °F -40 °F (1968)
Degree Days  
Heating Degree Days 88    
Moisture  
Dew Point -30 °F    
Average Humidity 71    
Maximum Humidity 78    
Minimum Humidity 63    
Precipitation  
Precipitation 0.00 in - - ()
Sea Level Pressure  
Sea Level Pressure 30.27 in    
Wind  
Wind Speed 13 mph (WNW)    
Max Wind Speed 21 mph    
Max Gust Speed -    
Visibility 9 miles    
Events      
Averages and records for this station are not official NWS values.
T = Trace of Precipitation, MM = Missing Value Source: NWS Daily Summary

Daily Weather History Graph

Daily Weather History Graph

Search for Another Location

Airport or City:

Trip Planner

Search our weather history database for the weather conditions in past years. The results will help you decide how hot, cold, wet, or windy it might be!

Date:

Astronomy

Jan. 06, 2014 Rise Set
Actual Time 8:05 AM CST 4:47 PM CST
Civil Twilight 7:30 AM CST 5:22 PM CST
Nautical Twilight 6:51 AM CST 6:00 PM CST
Astronomical Twilight 6:15 AM CST 6:37 PM CST
Moon 10:56 AM CST (1/6) 11:48 PM CST (1/6)
Length of Visible Light 9h 52m
Length of Day
8h 42m
Waxing Crescent, 35% of the Moon is Illuminated
Jan 6
Waxing Crescent
Jan 7
First Quarter
Jan 15
Full
Jan 23
Last Quarter
Jan 30
New

Hourly Weather History & Observations

Time (CST) Temp. Windchill Dew Point Humidity Pressure Visibility Wind Dir Wind Speed Gust Speed Precip Events Conditions
12:53 AM -27.0 °F -52.1 °F -33.0 °F 73% 30.38 in 9.0 mi WNW 12.7 mph - 0.00 in   Clear
1:53 AM -27.0 °F -52.1 °F -33.0 °F 73% 30.39 in 10.0 mi NW 12.7 mph - N/A   Clear
2:53 AM -27.0 °F -53.1 °F -33.0 °F 73% 30.39 in 10.0 mi NW 13.8 mph - N/A   Clear
3:53 AM -27.0 °F -53.1 °F -33.0 °F 73% 30.38 in 10.0 mi WNW 13.8 mph - N/A   Partly Cloudy
4:53 AM -26.0 °F -51.7 °F -33.0 °F 69% 30.38 in 8.0 mi WNW 13.8 mph - N/A   Overcast
5:53 AM -26.0 °F -50.7 °F -32.1 °F 73% 30.38 in 5.0 mi WNW 12.7 mph - N/A   Haze
6:16 AM -26.0 °F -51.7 °F -33.0 °F 69% 30.18 in 10.0 mi WNW 13.8 mph - N/A   Overcast
6:53 AM -27.0 °F -53.1 °F -33.0 °F 73% 30.37 in 10.0 mi WNW 13.8 mph - N/A   Mostly Cloudy
7:53 AM -27.0 °F -54.9 °F -34.1 °F 69% 30.36 in 10.0 mi WNW 16.1 mph - N/A   Partly Cloudy
8:53 AM -27.0 °F -54.0 °F -34.1 °F 69% 30.36 in 7.0 mi WNW 15.0 mph - N/A   Partly Cloudy
9:53 AM -25.1 °F -53.1 °F -32.1 °F 70% 30.36 in 7.0 mi WNW 17.3 mph - N/A   Scattered Clouds
10:37 AM -24.0 °F -53.9 °F -31.0 °F 70% 30.17 in 2.5 mi WNW 20.7 mph - N/A   Haze
10:53 AM -23.1 °F -50.5 °F -29.9 °F 70% 30.35 in 6.0 mi NW 17.3 mph - N/A   Haze
11:53 AM -20.9 °F -49.2 °F -29.0 °F 66% 30.32 in 8.0 mi NW 19.6 mph - N/A   Scattered Clouds
12:53 PM -20.0 °F -45.0 °F -29.0 °F 63% 30.30 in 10.0 mi WNW 15.0 mph - N/A   Clear
1:53 PM -18.9 °F -42.8 °F -27.9 °F 63% 30.29 in 10.0 mi WNW 13.8 mph - N/A   Partly Cloudy
2:53 PM -18.9 °F -44.4 °F -27.9 °F 63% 30.28 in 10.0 mi WNW 16.1 mph - N/A   Partly Cloudy
3:53 PM -20.0 °F -45.8 °F -29.0 °F 63% 30.29 in 10.0 mi WNW 16.1 mph - N/A   Partly Cloudy
4:53 PM -23.1 °F -48.0 °F -29.9 °F 70% 30.30 in 10.0 mi West 13.8 mph - N/A   Scattered Clouds
5:53 PM -25.1 °F -46.1 °F -31.0 °F 74% 30.28 in 10.0 mi West 9.2 mph - N/A   Clear
6:53 PM -26.0 °F -45.8 °F -32.1 °F 73% 30.27 in 10.0 mi West 8.1 mph - N/A   Partly Cloudy
7:53 PM -26.0 °F -47.2 °F -31.0 °F 77% 30.25 in 10.0 mi West 9.2 mph - N/A   Clear
8:37 PM -25.1 °F -43.1 °F -29.9 °F 78% 30.06 in 10.0 mi West 6.9 mph - N/A   Mostly Cloudy
8:53 PM -22.0 °F -39.4 °F -27.9 °F 74% 30.24 in 10.0 mi West 6.9 mph - N/A   Overcast
9:49 PM -18.4 °F -35.1 °F -25.6 °F 70% 30.04 in 10.0 mi West 6.9 mph - N/A   Overcast
9:53 PM -18.9 °F -35.8 °F -25.1 °F 74% 30.21 in 10.0 mi West 6.9 mph - N/A   Overcast
10:53 PM -18.0 °F -37.5 °F -23.1 °F 78% 30.19 in 10.0 mi West 9.2 mph - N/A   Overcast
11:17 PM -18.0 °F -39.7 °F -23.1 °F 78% 30.01 in 10.0 mi West 11.5 mph - N/A   Scattered Clouds
11:53 PM -18.0 °F -36.1 °F -23.1 °F 78% 30.17 in 10.0 mi West 8.1 mph - N/A   Mostly Cloudy